Snowfall_Accumulation
0.0 0.0 0.0 0.0 0.0 0.0 0.0 0.0 0.1 0.2 0.0 0.0 0.0 0.0 0.0 0.0 0.0 0.0 0.0 0.0 0.0 0.0 0.0 0.0 0.0 0.0 0.0 0.0 0.0 0.0 0.0 0.0 0.0 0.0 0.0 0.0 0.0 0.0
0.0 0.0 0.0 0.0 0.0 0.0 0.0 0.0 0.0 0.1 0.2 0.0 0.0 0.0 0.0 0.0 0.0 0.0 0.0 0.0 0.0 0.0 0.1 0.1 0.1 0.1 0.1 0.0 0.0 0.0 0.0 0.0 0.0 0.0 0.0 0.0 0.0 0.0
0.0 0.0 0.0 0.1 0.0 0.0 0.0 0.0 0.1 0.1 0.3 0.1 0.1 0.1 0.1 0.0 0.0 0.0 0.0 0.0 0.0 0.1 0.1 0.1 0.1 0.1 0.1 0.1 0.1 0.1 0.0 0.0 0.0 0.0 0.0 0.0 0.0 0.0
0.0 0.0 0.1 0.1 0.0 0.1 0.0 0.2 0.2 0.3 0.8 0.9 0.3 0.2 0.1 0.1 0.0 0.0 0.0 0.0 0.0 0.0 0.1 0.2 0.2 0.2 0.2 0.2 0.2 0.1 0.1 0.0 0.0 0.0 0.0 0.0 0.0 0.0
0.1 0.1 0.1 0.1 0.1 0.2 0.2 0.2 0.3 0.4 0.6 1.0 0.5 0.1 0.1 0.0 0.1 0.0 0.0 0.0 0.0 0.0 0.0 0.1 0.1 0.2 0.3 0.3 0.3 0.2 0.2 0.2 0.1 0.1 0.1 0.0 0.0 0.0
0.3 0.3 0.5 0.4 0.5 0.4 0.4 0.5 0.7 0.8 0.9 1.2 1.4 1.0 0.8 0.3 0.3 0.2 0.1 0.1 0.1 0.1 0.1 0.0 0.1 0.2 0.2 0.2 0.2 0.3 0.3 0.3 0.4 0.3 0.3 0.2 0.1 0.1
0.3 0.3 0.3 0.2 0.2 0.2 0.4 0.8 1.0 1.4 2.1 2.5 2.3 1.6 0.9 0.7 0.7 0.5 0.8 0.4 0.3 0.1 0.1 0.1 0.1 0.1 0.1 0.1 0.1 0.1 0.2 0.4 0.5 0.5 0.5 0.3 0.2 0.1
0.2 0.5 0.4 0.4 0.3 0.2 0.4 0.7 1.5 2.4 3.2 3.5 3.2 2.2 1.0 0.7 0.7 0.9 1.4 2.1 1.7 0.4 0.4 0.4 0.2 0.2 0.1 0.1 0.1 0.2 0.4 0.7 0.8 0.9 0.7 0.5 0.3 0.2
0.6 0.6 0.5 0.4 0.5 0.4 0.4 0.8 1.4 1.8 2.2 2.5 2.3 1.5 1.1 0.9 1.8 3.1 3.1 3.5 2.6 1.0 1.0 1.1 0.3 0.4 0.2 0.2 0.2 0.3 0.4 0.6 0.7 0.8 0.7 0.5 0.5 0.4
0.6 0.5 0.5 0.5 0.4 0.6 1.2 1.6 1.1 0.6 0.6 0.6 0.8 0.9 1.0 1.2 2.5 4.6 4.6 3.5 1.7 0.7 0.7 1.9 0.6 0.4 0.2 0.2 0.2 0.3 0.4 0.5 0.8 0.9 0.9 0.7 0.6 0.5
0.4 0.4 0.5 0.4 0.6 1.5 2.5 2.2 1.0 0.3 0.1 0.4 0.7 0.8 0.7 0.8 1.1 3.3 4.6 5.1 3.7 1.1 0.7 1.7 1.2 1.1 0.8 0.5 0.2 0.4 0.8 0.7 1.0 0.9 0.9 0.9 0.7 0.6
0.6 0.5 0.5 0.6 1.1 2.2 2.4 2.0 1.3 0.5 0.8 0.5 0.3 0.1 0.2 0.3 0.5 2.4 6.1 9.9 7.5 4.2 1.1 2.2 2.6 3.1 4.1 1.4 1.4 1.1 1.0 1.0 1.0 0.9 1.0 1.0 1.0 1.1
1.0 0.7 0.3 0.9 1.8 1.9 1.6 1.0 1.2 1.8 1.6 0.8 0.5 0.3 0.3 0.3 0.4 1.0 3.4 9.8 12.8 8.1 2.1 5.7 7.1 4.5 7.8 5.8 2.4 1.6 1.7 2.0 1.7 1.2 1.0 1.0 1.0 1.3
1.2 0.7 0.8 1.5 1.6 1.2 0.8 0.9 1.2 1.1 0.8 1.0 1.0 1.0 1.1 1.1 1.4 1.6 2.4 4.4 7.3 8.5 5.3 8.0 12.5 9.3 11.4 8.9 4.3 2.9 1.5 2.5 3.4 2.4 1.5 0.9 0.7 0.9
1.0 1.2 1.3 1.1 0.9 0.9 0.7 1.0 1.2 1.3 1.8 2.7 2.4 1.9 1.9 2.2 2.3 3.1 3.3 3.6 4.1 4.7 6.3 6.6 9.6 10.3 12.2 11.8 8.2 6.7 7.0 4.1 4.1 4.0 2.7 1.8 1.0 1.0
1.2 1.1 0.8 0.6 0.8 1.0 0.9 1.2 1.3 2.1 3.5 4.9 4.5 3.3 3.1 3.7 5.0 6.2 7.5 8.0 9.7 8.3 7.3 6.9 7.2 10.1 11.8 9.3 10.1 9.6 9.6 9.8 6.8 5.2 4.0 2.8 1.4 1.0
1.5 0.8 0.8 0.9 0.9 1.2 1.2 1.3 1.6 2.1 3.6 4.8 5.5 6.1 6.1 7.2 8.9 10.5 11.6 11.4 11.2 9.6 7.7 6.1 5.5 5.9 7.5 8.3 9.2 9.1 9.8 9.8 7.4 4.8 4.7 4.9 2.3 1.5
1.0 1.1 1.1 1.3 1.5 1.7 2.0 1.9 2.1 2.9 4.7 6.3 7.4 8.5 10.5 11.2 11.6 11.4 11.7 11.8 10.9 8.5 7.0 5.6 5.4 5.7 5.2 4.8 6.9 9.5 10.1 10.2 6.7 5.4 5.5 6.7 5.2 2.7
1.4 1.6 1.6 1.8 2.1 2.4 2.8 3.6 3.5 3.7 5.7 8.0 10.1 12.0 13.1 13.3 12.9 12.2 11.0 9.8 8.4 6.4 5.6 4.7 5.4 9.3 10.1 6.7 5.0 7.1 11.9 12.0 8.0 6.1 5.7 6.2 6.3 4.1
2.1 3.1 3.2 2.7 2.9 3.4 4.2 5.1 6.0 6.6 7.7 10.3 11.5 12.9 14.3 14.8 13.4 11.1 9.2 8.2 7.2 5.6 4.2 3.3 4.3 8.8 14.3 13.2 10.3 8.5 8.3 12.2 13.2 11.2 6.6 4.3 3.7 2.5
3.3 3.8 4.1 3.7 3.5 4.7 5.6 6.9 8.6 10.3 11.0 12.6 13.2 14.1 14.5 14.3 11.7 8.5 6.9 5.4 5.5 5.6 5.5 4.1 3.7 4.9 8.6 11.3 10.1 7.6 8.6 7.1 9.0 14.1 13.3 11.2 8.5 6.1
2.7 3.4 3.7 3.9 4.4 5.8 6.8 8.4 10.1 11.0 12.3 13.2 14.1 14.2 13.0 11.7 9.7 6.7 5.7 5.7 5.4 5.2 4.9 4.0 3.1 3.7 6.4 10.0 9.3 7.2 7.6 7.7 5.5 4.2 6.3 10.2 17.0 17.3
2.9 3.7 4.4 4.7 5.7 6.9 8.7 9.8 10.6 11.5 13.0 14.3 14.2 12.6 10.8 8.7 6.5 5.9 5.8 5.8 5.8 5.2 4.8 4.5 4.0 4.0 4.9 6.7 7.9 7.2 6.5 6.1 5.7 6.0 7.9 4.8 5.1 6.0